Regional Weather Roundup
Issued by NWS

Home | Current Version | Previous Version | Text Only | Print | Product List | Glossary Off
Versions: 1 2 3 4 5 6 7 8 9 10 11 12 13 14 15 16 17 18 19 20 21 22 23 24 25 26 27 28 29 30 31 32 33 34 35 36 37 38 39 40 41 42 43 44 45 46 47 48 49 50

000
ASUS45 KTFX 231319
RWRMT
MONTANA HOURLY WEATHER ROUNDUP
NATIONAL WEATHER SERVICE GREAT FALLS MT
719 AM MDT TUE SEP 23 2014

NOTE: "FAIR" INDICATES FEW OR NO CLOUDS BELOW 12000 FEET WITH NO
SIGNIFICANT WEATHER AND/OR OBSTRUCTIONS TO VISIBILITY.

* THESE STATIONS ARE NOT UNDER NWS QUALITY CONTROL. THEY DO NOT
   REPORT WEATHER SUCH AS PRECIPITATION OR FOG.

MTZ001>007-043-231400-
WEST OF THE DIVIDE
CITY           SKY/WX    TMP DP  RH WIND       PRES   REMARKS
KALISPELL      LGT RAIN  52  48  86 W3        30.01R
MISSOULA       PTCLDY    52  45  77 S7        30.05S
BUTTE          PTCLDY    37  37 100 CALM      30.15S
MULLAN PASS    CLOUDY    54  43  67 CALM      30.12F
* ESSEX        N/A       47  42  83 SE2        N/A
* LINCOLN      N/A       35  33  92 NE1        N/A
* POLSON       N/A       60  45  58 E1         N/A
* RONAN APT    MOCLDY    66  48  52 N/A        N/A
* SEELEY LAKE  N/A       38  34  86 N2         N/A
* THOMP F APT  MOCLDY    46  45  96 NE2        N/A
$$

MTZ008-052>055-231400-
SOUTHWEST MONTANA
CITY           SKY/WX    TMP DP  RH WIND       PRES   REMARKS
BOZEMAN        CLEAR     43  39  86 NE5       30.10R
DILLON         PTCLDY    48  45  89 S9        30.13S
W YELLOWSTONE  CLOUDY    48  46  93 CALM      30.25R
* THREE FORKS  CLEAR     43  27  53 N/A        N/A
* BOULDER HILL N/A       50  39  66 SW9        N/A
* MONIDA PASS  N/A       41  41 100 N/A        N/A
* RAYNOLDS PAS N/A       48  28  46 SE8        N/A
* WHITEHALL    N/A       46  43  89 N5         N/A
* WISE RIVER   N/A       38  37  96 W6         N/A   WCI  33
$$

MTZ009>010-012-014-046-048-049-054-231400-
EAST SLOPES AND CENTRAL MONTANA
CITY           SKY/WX    TMP DP  RH WIND       PRES   REMARKS
CUT BANK       CLEAR     57  45  64 W13       29.96R
GREAT FALLS    PTCLDY    61  46  58 SW14      29.97R
HELENA         CLEAR     52  45  77 CALM      30.06R
MALMSTROM AFB  CLEAR     55  46  72 SW5       29.97S
* CONRAD       PTCLDY    59  46  62 N/A        N/A
* EAST GLACIER N/A       58  43  58 W9         N/A
* MONARCH      N/A       48  41  77 NE2        N/A
* PENDROY      N/A       61  43  52 W10        N/A
* ROGERS PASS  N/A       57  38  49 W2         N/A
* SWEET GRASS  N/A       62  42  48 W16        N/A
* WHITE SULPH  N/A       47  44  89 NE6        N/A
$$

MTZ011-013-016-021-035-040-045-047-050-051-231400-
NORTH CENTRAL MONTANA
CITY           SKY/WX    TMP DP  RH WIND       PRES   REMARKS
HAVRE          PTCLDY    54  46  74 SW10      29.89R
LEWISTOWN      CLEAR     52  43  72 S6        30.01R
* CHINOOK      MOCLDY    48  48 100 CALM      29.89R
* FORT BENTON  CLEAR     57  48  72 CALM      29.94S
* CHESTER      N/A       48  41  77 E1         N/A
* DENTON       N/A       51  44  77 S4         N/A
* GEYSER       N/A       56  43  62 W8         N/A
* JUDITH GAP   N/A       50  45  83 S4         N/A
* LOMA         N/A       57  47  69 W4         N/A
$$

MTZ017>020-022>027-061-062-231400-
NORTHEAST MONTANA
CITY           SKY/WX    TMP DP  RH WIND       PRES   REMARKS
GLASGOW        CLEAR     50  45  83 CALM      29.85R
GLENDIVE       PTCLDY    48  45  89 CALM      29.87R
JORDAN         CLEAR     48  46  93 W6        29.88R
SIDNEY         CLEAR     46  45  96 CALM      29.86S
WOLF POINT     CLEAR     45  43  93 CALM      29.85R
* BEAVER HILL  N/A       54  49  83 S2G7       N/A
* CIRCLE       N/A       47  43  86 N/A        N/A
* LINDSAY DVD  N/A       58  50  75 W6         N/A
* NAVAJO       N/A       52  47  83 N/A        N/A
$$

MTZ028>042-056>058-231400-
SOUTHCENTRAL AND SOUTHEAST MONTANA
CITY           SKY/WX    TMP DP  RH WIND       PRES   REMARKS
BAKER          CLEAR     48  46  93 SE6       29.89R
BILLINGS       PTCLDY    61  46  58 SW20      29.97S
LIVINGSTON     CLEAR     48  43  83 NW17      30.07S
MILES CITY     MOCLDY    54  48  80 CALM      29.87S
* LAUREL APT   PTCLDY    55  43  64 SW6        N/A
* ROUNDUP APT  PTCLDY    55  46  72 S9         N/A
* ALZADA       N/A       59  56  90 SE6        N/A
* HYSHAM       N/A       56  47  72 W8         N/A
* LAME DEER    N/A       59  46  62 W12        N/A
* REED POINT   N/A       51  46  83 E3         N/A
* ROSCOE HILL  N/A       62  35  37 SW9G15     N/A
$$

REGIONAL REPORTS...DAKOTAS
CITY           SKY/WX    TMP DP  RH WIND       PRES   REMARKS
WILLISTON      CLEAR     46  45  96 N3        29.85S
DICKINSON      CLEAR     52  48  86 S8        29.87R
BEACH          N/A       48  48 100 S6        29.88R
CROSBY         CLEAR     48  48 100 S3        29.86R
TIOGA          CLEAR     45  45 100 E6        29.90R
WATFORD CITY   CLEAR     45  45 100 CALM      29.85R
BISMARCK       CLEAR     61  55  81 S12       29.92S
GRAND FORKS    CLEAR     54  48  80 S10       30.02S
FARGO          CLEAR     57  48  72 SE13      30.05R
BUFFALO SD     PTCLDY    57  55  93 SE7       29.84S
RAPID CITY     MOCLDY    57  54  90 CALM      29.91R
$$

REGIONAL REPORTS...WYOMING/IDAHO/WASHINGTON
CITY           SKY/WX    TMP DP  RH WIND       PRES   REMARKS
GILLETTE       MOCLDY    59  48  67 CALM      29.99R
SHERIDAN       CLOUDY    52  45  77 CALM      29.98R
CODY           PTCLDY    63  43  48 W3        30.09R
YELLOWSTONE LA PTCLDY    46  46 100 CALM      30.32R
SALMON         CLEAR     46  45  96 CALM      30.12S
MULLAN PASS    CLOUDY    54  43  67 CALM      30.12S
SAND POINT     CLOUDY    55  55 100 N3        29.97S
SPOKANE        MOCLDY    63  54  73 SE8       29.93F
$$

REGIONAL REPORTS...ALBERTA
CITY           SKY/WX    TMP DP  RH WIND       PRES   REMARKS
CALGARY        MOCLDY    59  45  60 VRB2      29.95R
LETHBRIDGE     PTCLDY    55  45  69 SW12      29.90R
MEDICINE HAT   MOCLDY    52  46  80 SW8       29.84R
EDMONTON       MOCLDY    48  45  89 W7        29.89R
WATERTON GATE  N/A       59  43  56 SW3        N/A
CARDSTON       N/A       59  46  62 SW7        N/A
MILK RIVER     N/A       52  45  77 NW12       N/A
$$

REGIONAL REPORTS...SASKATCHEWAN
CITY           SKY/WX    TMP DP  RH WIND       PRES   REMARKS
SWIFT CURRENT  CLEAR     52  46  80 SW12      29.82R
MOOSE JAW      FAIR      55  50  83 S12       29.80S
REGINA         FAIR      50  48  93 SE13      29.83S
VAL MARIE      N/A       39  37  93 E1         N/A
ASSINIBOIA     N/A       52  46  80 S6         N/A
CORONACH       N/A       39  37  93 W2         N/A

$$




USA.gov is the U.S. government's official web portal to all federal, state and local government web resources and services.